Location: Mahannah Oil Field
(37.4664°N, 96.6003°W)
Time: 18:56:34
(UTC+00:00)

Vanguard 2 Rocket - Pass Details

Date: 25 January 2021
Orbit: 554 x 3326 km, 32.9° (Epoch: 26 February)

Event Time Altitude Azimuth Distance (km) Brightness Sun altitude
Rises 02:26:05 0° 275° (W) 4,360 11.5 -32.4°
Reaches altitude 10° 02:30:03 10° 265° (W) 2,931 10.3 -33.2°
Enters shadow 02:35:07 26° 217° (SW) 1,535 8.3 -34.2°
Maximum altitude 02:35:27 27° 210° (SSW) 1,503 - -34.3°
Drops below altitude 10° 02:39:19 10° 152° (SSE) 2,041 - -35.1°
Sets 02:41:34 0° 139° (SE) 2,811 - -35.5°
